This demonstration page uses our WeatherBlox Daily Observations layout. Learn more.

Left ArrowRight Arrow

39.95238, -75.16362

Hourly Observations for February 11, 2017

Temp ( °F °C ) Dew Point ( °F °C ) Humidity (%) Winds ( mph kmh ) Pressure ( in mb ) Visibility ( mi km ) Precip ( " mm )
12:54 am 00:54 Cloudy 34 1.1 21 -6.1 59 59 SSE 5 7 30.04 1017 10 16 0.00 0.00
1:54 am 01:54 Cloudy 34 1.1 23 -5 64 64 SSE 3 6 30.02 1017 10 16 0.00 0.00
2:54 am 02:54 Mostly Cloudy 34 1.1 22 -5.6 61 61 Calm 29.99 1016 10 16 0.00 0.00
3:54 am 03:54 Partly Cloudy 32 0 23 -5 69 69 E 5 7 29.98 1015 10 16 0.00 0.00
4:54 am 04:54 Partly Cloudy 31 -0.6 22 -5.6 69 69 E 5 7 29.98 1015 10 16 0.00 0.00
5:54 am 05:54 Mostly Cloudy 32 0 24 -4.4 73 73 E 3 6 29.97 1015 10 16 0.00 0.00
6:54 am 06:54 Mostly Cloudy 31 -0.6 23 -5 72 72 ESE 3 6 29.96 1014 10 16 0.00 0.00
7:54 am 07:54 Mostly Cloudy 32 0 24 -4.4 73 73 Calm 29.96 1015 10 16 0.00 0.00
8:54 am 08:54 Mostly Cloudy 36 2.2 27 -2.8 70 70 Calm 29.97 1015 10 16 0.00 0.00
9:54 am 09:54 Mostly Cloudy 38 3.3 26 -3.3 62 62 W 6 9 29.98 1015 10 16 0.00 0.00
10:54 am 10:54 Mostly Cloudy 39 3.9 27 -2.8 62 62 W 7 11 29.98 1015 10 16 0.00 0.00
11:54 am 11:54 Cloudy 44 6.7 28 -2.2 53 53 SW 9 15 29.95 1014 10 16 0.00 0.00
12:54 pm 12:54 Cloudy 47 8.3 29 -1.7 50 50 W 7 11 29.92 1013 10 16 0.00 0.00
1:54 pm 13:54 Cloudy 50 10 30 -1.1 46 46 WSW 5 7 29.91 1013 10 16 0.00 0.00
2:54 pm 14:54 Cloudy 53 11.7 31 -0.6 43 43 Calm 29.90 1013 10 16 0.00 0.00
3:54 pm 15:54 Cloudy 55 12.8 30 -1.1 38 38 VRB 7 11 29.92 1013 10 16 0.00 0.00
4:54 pm 16:54 Cloudy 51 10.6 31 -0.6 46 46 NNE 6 9 29.95 1014 10 16 0.00 0.00
5:54 pm 17:54 Mostly Cloudy 47 8.3 32 0 56 56 E 7 11 29.98 1015 10 16 0.00 0.00
6:54 pm 18:54 Cloudy 47 8.3 31 -0.6 54 54 E 8 13 29.99 1016 10 16 0.00 0.00
7:54 pm 19:54 Cloudy 46 7.8 31 -0.6 56 56 E 5 7 30.01 1016 10 16 0.00 0.00
8:54 pm 20:54 Cloudy 46 7.8 31 -0.6 56 56 NE 6 9 30.04 1017 10 16 0.00 0.00
9:54 pm 21:54 Cloudy 45 7.2 32 0 61 61 E 3 6 30.04 1017 10 16 0.00 0.00
10:54 pm 22:54 Cloudy 46 7.8 30 -1.1 54 54 NE 7 11 30.05 1018 10 16 0.00 0.00
11:54 pm 23:54 Cloudy 45 7.2 31 -0.6 58 58 NE 3 6 30.06 1018 10 16 0.00 0.00

Powered by AerisWeather